Regional Weather Roundup
Issued by NWS

Home | Current Version | Previous Version | Text Only | Print | Product List | Glossary On
Versions: 1 2 3 4 5 6 7 8 9 10 11 12 13 14 15 16 17 18 19 20 21 22 23 24 25 26 27 28 29 30 31 32 33 34 35 36 37 38 39 40 41 42 43 44 45 46 47 48 49 50
000
ASUS46 KLOX 232112
RWRCA

SOUTHERN CALIFORNIA WEATHER ROUNDUP
NATIONAL WEATHER SERVICE OXNARD CALIFORNIA
200 PM PDT WED APR 23 2014

NOTE: "FAIR" INDICATES FEW OR NO CLOUDS BELOW 12,000 FEET WITH NO
SIGNIFICANT WEATHER AND/OR OBSTRUCTIONS TO VISIBILITY.

  -  STATIONS PRECEEDED BY AN ASTERISK (*) ARE NOT NWS OR FAA
     STATIONS AND ARE NOT SUBJECT TO NWS AND FAA QUALITY CONTROL.

CAZ041-042-087-232200-
LA AND ORANGE COUNTY COASTAL AREAS


CITY           SKY/WX    TMP DP  RH WIND       PRES   REMARKS
L.A. DOWNTOWN  SUNNY     69  47  45 VRB6      29.94F
L.A. AIRPORT   PTSUNNY   67  50  54 W16       29.96F
LONG BEACH     SUNNY     70  48  45 S9        29.95F

CITY           SKY/WX    TMP DP  RH WIND       PRES   REMARKS
AVALON           N/A     64 N/A N/A MISG        N/A
FULLERTON      SUNNY     71  51  49 S7        29.93F
*GETTY CENTER    N/A     64  39  39 SW15        N/A
HAWTHORNE      SUNNY     68  44  42 W14       29.96F
*LEO CARRILLO    N/A     68  51  53 SW9         N/A
*LOS ALAMITOS  MOSUNNY   70  53  54 SW10      29.95F
*REDONDO BEACH   N/A     68  53  59 W2        29.94F
SANTA ANA      PTSUNNY   70  51  51 SW8       29.95F
STA MONICA APT SUNNY     69  46  43 SW10      29.96F
TORRANCE       MOSUNNY   72  54  53 W17       29.96
*UCLA            N/A     64  34  32 SW17      29.92F

$$

CAZ547-548-048-232200-
LA COUNTY VALLEYS AND INLAND EMPIRE


CITY           SKY/WX    TMP DP  RH WIND       PRES   REMARKS
BURBANK        SUNNY     70  41  34 SE8       29.93S
VAN NUYS       SUNNY     72  40  31 S15       29.92S

CITY           SKY/WX    TMP DP  RH WIND       PRES   REMARKS
CORONA AIRPORT CLEAR     73  50  44 W14       29.93F
*CHATSWORTH      N/A     78  38  23 E3        29.89S
CHINO          PTSUNNY   76  46  34 W9G20     29.93F
MARCH AFB      MOSUNNY   72  39  30 VRB5      29.93F
*NORTHRIDGE      N/A     75  32  20 SE6G15      N/A
ONTARIO        PTSUNNY   74  43  32 W12       29.92F
*PASADENA        N/A     75  52  43 E2          N/A
RIVERSIDE      PTSUNNY   74  41  30 W8        29.92F
SAN BERNARDINO MOSUNNY   72  37  28 SW12      29.92F
*SAN GABRIEL     N/A     72  43  35 CALM      29.91S
*SAN RAFAEL HI   N/A     73  46  37 W3G20       N/A
*SAUGUS          N/A     79  24  13 W7          N/A
*WHITEMAN AP   MOSUNNY   72  41  33 SE12G20   29.95F
*WHITTIER HILL   N/A     73  49  43 S7          N/A
*WOODLAND HILL   N/A     75  37  25 S8          N/A

$$

CAZ054-055-232200-
LA AND SAN BERNARDINO COUNTY MOUNTAINS


CITY           SKY/WX    TMP DP  RH WIND       PRES   REMARKS
*ACTON           N/A     70  15  12 N8          N/A
*BIG BEAR AIRP CLEAR     55  14  19 E10       30.06S
*BIG PINES       N/A     56  13  18 E2          N/A
MT WILSON NWS    N/A     59  43  55 MISG        N/A
SANDBERG       SUNNY     59  22  24 N18G25    30.05S

$$

CAZ028-029-059-060-099-232200-
ANTELOPE VALLEY AND SURROUNDING AREAS


CITY           SKY/WX    TMP DP  RH WIND       PRES   REMARKS
LANCASTER      SUNNY     70  14  11 E8        29.98F
PALMDALE       SUNNY     67  16  14 VRB5      29.99F
*POPPY PARK      N/A     74  18  12 N8G28       N/A

CITY           SKY/WX    TMP DP  RH WIND       PRES   REMARKS
29 PALMS       MOSUNNY   74  14  10 VRB7      30.00F
BARSTOW/DAGGET SUNNY     72  13  10 SE5       29.95F
BISHOP         SUNNY     68  11  11 VRB6      29.95F
CHINA LAKE     MOSUNNY   71  17  12 VRB3      29.95F
EDWARDS AFB    PTSUNNY   69  13  11 VRB3      29.96F
MOJAVE         FAIR      68  14  12 CALM      29.99S
NEEDLES        SUNNY     83   9   6 NE16G25   29.87F
VICTORVILLE    MOSUNNY   68  14  12 NW8       29.99F

$$

CAZ039-040-232200-
VENTURA AND SANTA BARBARA COUNTY COAST


CITY           SKY/WX    TMP DP  RH WIND       PRES   REMARKS
CAMARILLO      SUNNY     71  37  28 SW10      29.95F
NWS OXNARD       N/A     69  38  31 W7        29.95F
OXNARD AIRPORT SUNNY     67  48  50 W15       29.96S
*POINT MUGU    PTSUNNY   70  50  49 W16       29.96S
SBA APT/GOLETA MOSUNNY   69  46  43 SE13      29.94S
*SANTA BARBARA   N/A     69  46  43 NW3       30.03S
*VENTURA         N/A     72  38  29 SW10      29.99S

$$

CAZ044-045-232200-
VENTURA COUNTY VALLEYS


CITY           SKY/WX    TMP DP  RH WIND       PRES   REMARKS
*SIMI VALLEY     N/A     74  41  30 W7        29.89R
*OJAI            N/A     76  42  29 W3        29.89F
*FILLMORE        N/A     77  44  30 CALM      29.83S

$$

CAZ053-232200-
VENTURA COUNTY MOUNTAINS


CITY           SKY/WX    TMP DP  RH WIND       PRES   REMARKS
*LOCKWOOD VLY    N/A     59  18  20 MISG        N/A
*ROSE VALLEY     N/A     68  37  32 MISG        N/A

$$

CAZ034-035-036-232200-
CENTRAL COAST AND SANTA YNEZ VALLEY


CITY           SKY/WX    TMP DP  RH WIND       PRES   REMARKS
SAN LUIS OBISP SUNNY     67  41  38 NW22G29   30.04F
SANTA MARIA    SUNNY     67  39  35 W29G36    30.03F

CITY           SKY/WX    TMP DP  RH WIND       PRES   REMARKS
*CAL POLY SLO    N/A     64  43  45 NW10G20     N/A
*CAMBRIA         N/A     57  47  67 NE7       29.98S
*LOMPOC        SUNNY     66  37  34 W15G26    30.06S
*PISMO BEACH     N/A     66  43  42 W7        30.03S
*SANTA YNEZ    FAIR      73  32  21 NW15G26   29.97S

$$

CAZ037-038-051-232200-
SAN LUIS OBISPO COUNTY INTERIOR AND CUYAMA VALLEY


CITY           SKY/WX    TMP DP  RH WIND       PRES   REMARKS
*CUYAMA          N/A     61  22  22 CALM      29.93S
PASO ROBLES    SUNNY     70  29  21 VRB5      30.06F

$$

CAZ032-033-061-232200-
SOUTHERN DESERTS


CITY           SKY/WX    TMP DP  RH WIND       PRES   REMARKS
BLYTHE         SUNNY     85  12   6 N8        29.84F
IMPERIAL       MOSUNNY   83  21  10 N10       29.83F
PALM SPRINGS   MOSUNNY   84  14   7 N7        29.88F
THERMAL        MOSUNNY   85  19   9 MISG      29.83F

$$

ELSEWHERE ACROSS THE WESTERN UNITED STATES AND MEXICO


CITY           SKY/WX    TMP DP  RH WIND       PRES   REMARKS
DENVER, CO     CLOUDY    69  32  25 NE12      29.60S
GRAND CANYON,  SUNNY     57   9  14 W10G23    30.00R
HONOLULU, HI   MOSUNNY   82  63  51 E18G28    30.10F
KAHULUI, MAUI  MOSUNNY   82  64  54 NE21G33   30.09F
LAKE TAHOE, CA SUNNY     51  23  33 NE8       30.07S
LAS VEGAS, NV  SUNNY     72  12  10 CALM      29.89F
MAMMOTH LAKES, FAIR      57   9  14 CALM      30.03F
MEXICO CITY, M PTSUNNY   75  39  27 S6        30.19F
PHOENIX, AZ    MOSUNNY   84  18   8 W13G24    29.81S
PORTLAND, OR   LGT RAIN  54  47  77 S14       29.91F
RENO, NV       PTSUNNY   59  21  23 NE5       30.03F
SALT LAKE CITY MOSUNNY   51  21  30 N7        30.05S
SAN DIEGO, CA  PTSUNNY   67  52  58 SW10      29.97S
SAN FRANCISCO, MOSUNNY   65  45  48 W18       30.15S
SAN JOSE, CA   PTSUNNY   65  39  38 NW16      30.13S
SEATTLE, WA    CLOUDY    51  42  71 SW13      29.90F
TIJUANA, MEX   MOSUNNY   68  46  45 NW13      29.97F

$$

STATION/POSITION TIME  TEMP    WIND        PRES    VSBY  WAVE
                       AIR SEA DIR/SP/G                  HT/PER
                 (UTC) (F)     (DEG/KT/KT) (MB)    (MI)  (FT/S)
POINT ARGUELLO B NOT AVBL
WEST SANTA BARBA 2100   54 54  320/ 25/ 29 1016.0F        10/12
POINT CONCEPTION NOT AVBL
EAST SANTA BARBA NOT AVBL
SANTA MONICA BAY 2100   60 61  280/  8/ 10 1014.6F         5/12



USA.gov is the U.S. government's official web portal to all federal, state and local government web resources and services.